Weather in Worms

Germany     49°37′43″N   8°21′19″E
temp.,
°C
wind,
m/s
gust,
m/s
humid.,
%
clouds,
%
prec.,
mm/h
press.,
hPa
HPBL,
m
11 may, tue
tue1123:00+12w1395100 2.0 1010131
02:00+11wsw2495100 2.3 1010136
05:00+11nnw129787 2.9 1009101
08:00+12wsw2393100 3.9 1009214
11:00+12ssw1196100 3.5 1008100
14:00+12ssw1197100 7.9 100882
17:00+15wsw4682100 7.9 1008803
20:00+13w478998 8.4 1008359
12 may, wed
wed1223:00+12w3891100 0.1 1010254
02:00+11wsw3892100 0.1 1010236
05:00+11w51090100 0.1 1011440
08:00+11w5988100 0.1 1012487
11:00+12wnw3580100 0.1 1013701
14:00+11nne2382100 0.3 1012309
17:00+12ene2277100 0.1 1011321
20:00+12e1182100 0.3 101135
13 may, thu
thu1323:00+10ne008494 0.0 101111
02:00+9wnw0086100 0.0 101010
05:00+10wsw1184100 0.0 100913
08:00+11wsw2383100 0.0 1009182
11:00+14w4571100 0.4 1008815
14:00+16wnw2456100 0.8 10071596
17:00+14w5778100 1.6 1007846
20:00+11w4887100 3.3 1007360
14 may, fri
fri1423:00+10wsw2589100 0.2 1008129
02:00+9wsw3987100 0.2 1008228
05:00+8sw3890100 0.0 1008240
08:00+9wsw3686100 0.0 1008277
11:00+13wsw5572100 0.1 10091018
14:00+15w5661100 0.8 10081494
17:00+17w455261 0.4 10081800
20:00+13wsw59755 0.8 1008259
15 may, sat
sat1523:00+9w37871 0.0 1010130
02:00+7wsw23890 0.0 101148
05:00+6sw22915 0.0 101133
08:00+9sw268314 0.0 1011286
11:00+13sw576833 0.1 10111215
14:00+13wsw566866 0.6 10091122
17:00+14wsw576560 0.4 10081328
20:00+12sw51080100 0.9 1007614